Temp
33 35 35 35 37 39 40 40 42 42 43 44 45 46 48 50 50 50 50 51 52 52 53 55 63 66 66
30 31 33 35 36 36 38 40 41 42 42 44 45 46 48 48 48 48 49 50 49 50 50 52 54 61 66
27 32 33 35 35 36 37 38 41 41 43 44 44 45 45 46 47 48 47 47 48 49 49 50 51 52 60
28 30 32 35 35 33 32 38 37 41 42 42 43 43 44 45 46 45 45 46 46 47 47 48 49 50 49
28 30 30 31 31 33 33 35 37 39 38 40 41 42 43 44 43 44 44 45 45 46 45 46 48 48 50
29 27 29 31 33 32 31 30 28 39 37 36 40 38 40 42 42 43 44 44 45 45 45 44 46 48 48
27 28 29 32 33 31 31 31 30 35 36 33 38 36 40 43 41 42 43 44 45 45 45 44 45 46 47
31 32 33 34 33 33 32 32 33 35 36 28 36 35 39 40 41 41 42 43 44 45 45 45 44 45 46
36 37 37 38 38 35 30 28 28 32 37 33 34 34 37 38 41 42 42 43 44 44 45 43 44 45 45
33 35 36 35 35 33 32 28 29 28 36 32 33 34 30 38 39 41 41 42 44 43 41 42 42 40 44
29 30 31 34 34 35 35 33 29 29 35 34 31 32 30 30 35 38 39 39 40 40 42 43 42 41 39
29 29 30 30 32 33 33 33 34 32 35 35 29 30 28 27 28 35 37 39 39 39 40 42 42 42 42
26 27 29 30 31 30 31 31 31 32 34 33 31 31 30 27 28 30 32 35 38 37 39 39 38 39 36
26 27 28 27 26 28 26 26 25 26 31 32 32 31 27 28 29 28 31 29 35 36 37 38 39 37 36
24 24 25 25 25 26 26 25 22 23 24 28 31 31 30 28 25 27 28 29 32 33 33 32 35 37 37
23 23 23 23 23 24 25 23 21 23 23 26 26 25 26 28 31 26 27 27 30 32 32 29 30 34 37
21 21 22 22 22 21 22 22 21 23 24 25 24 22 19 18 28 34 27 28 29 29 30 30 29 33 36
MSLP
1027.59 1027.24 1026.74 1025.99 1025.25 1024.80 1024.11 1023.46 1022.63 1021.92 1021.29 1020.63 1019.86 1019.22 1018.54 1017.82 1017.61 1017.14 1016.67 1016.30 1016.31 1015.52 1015.58 1014.59 1013.39 1012.81 1013.44
1027.05 1026.59 1026.06 1025.54 1024.74 1023.83 1023.41 1022.74 1021.94 1021.29 1020.62 1019.87 1019.23 1018.49 1017.81 1017.40 1016.87 1016.43 1015.92 1015.79 1016.02 1015.34 1015.21 1014.39 1013.58 1012.46 1011.51
1025.98 1025.84 1025.30 1024.77 1023.96 1023.27 1022.35 1021.71 1021.21 1020.46 1019.71 1019.02 1018.39 1017.88 1017.31 1016.76 1016.16 1015.90 1015.62 1015.54 1013.98 1014.23 1013.73 1013.62 1012.53 1012.41 1010.94
1025.05 1024.29 1023.92 1023.51 1023.10 1022.47 1021.30 1020.63 1019.91 1019.49 1019.00 1018.46 1017.83 1017.17 1016.62 1016.03 1015.39 1015.18 1014.82 1013.95 1014.30 1013.61 1013.77 1012.87 1012.39 1011.52 1011.06
1024.03 1023.37 1022.62 1022.24 1021.94 1021.54 1020.80 1020.11 1018.63 1018.64 1017.93 1017.48 1016.95 1016.34 1015.96 1015.45 1015.02 1014.67 1014.23 1013.79 1013.31 1012.52 1012.77 1012.05 1011.33 1011.15 1010.37
1023.14 1022.42 1021.56 1021.40 1021.08 1020.70 1020.13 1019.50 1018.04 1017.61 1016.91 1016.14 1016.38 1015.46 1014.97 1014.57 1014.09 1013.61 1013.14 1012.54 1012.05 1012.30 1010.99 1011.28 1010.70 1009.94 1009.64
1022.13 1021.46 1020.78 1020.32 1020.03 1019.54 1018.98 1018.50 1017.41 1016.30 1016.29 1014.93 1015.16 1014.31 1014.03 1013.41 1013.13 1012.64 1012.18 1011.83 1011.04 1010.47 1010.28 1009.92 1009.63 1009.01 1008.99
1021.17 1020.33 1019.69 1019.01 1018.94 1018.35 1017.65 1016.95 1016.31 1015.56 1015.56 1013.95 1013.51 1012.91 1012.82 1012.21 1011.86 1011.51 1010.96 1010.31 1009.83 1009.48 1009.01 1008.51 1008.28 1008.00 1007.67
1019.11 1018.49 1017.98 1017.24 1016.80 1016.37 1016.01 1015.58 1014.36 1013.64 1013.43 1013.00 1011.82 1011.55 1011.36 1010.83 1010.23 1009.89 1009.67 1009.06 1008.68 1008.03 1007.86 1007.14 1006.59 1006.22 1005.79
1017.64 1017.03 1016.47 1015.80 1015.90 1015.75 1015.19 1014.51 1013.72 1012.45 1012.11 1012.05 1011.10 1010.86 1009.83 1009.13 1008.87 1008.53 1008.24 1007.82 1007.01 1006.70 1006.60 1006.32 1006.20 1005.78 1004.27
1016.39 1015.56 1015.51 1014.88 1014.56 1014.17 1013.87 1013.44 1012.59 1011.59 1010.98 1010.97 1010.34 1009.69 1009.29 1008.02 1007.82 1007.51 1007.22 1006.66 1006.26 1005.80 1005.26 1004.93 1004.86 1004.90 1004.38
1015.32 1014.71 1014.27 1013.79 1013.34 1013.03 1012.70 1012.32 1011.83 1011.18 1009.75 1010.10 1009.43 1008.96 1008.23 1007.21 1006.42 1006.27 1005.78 1005.49 1005.29 1004.76 1004.30 1003.66 1003.63 1003.63 1003.06
1014.50 1013.93 1013.51 1013.05 1012.57 1012.07 1011.60 1011.20 1010.61 1009.84 1008.80 1008.69 1008.56 1007.77 1007.40 1006.08 1005.11 1004.59 1004.32 1003.76 1003.71 1003.51 1003.26 1002.82 1002.53 1002.49 1002.02
1013.70 1013.12 1012.70 1012.30 1011.66 1011.19 1010.59 1010.04 1009.28 1008.19 1007.71 1007.42 1007.35 1006.82 1005.92 1005.27 1004.81 1003.61 1003.33 1002.72 1002.41 1002.18 1001.91 1001.47 1001.26 1001.12 1000.23
1013.04 1012.42 1011.81 1011.16 1010.43 1009.94 1009.39 1008.75 1007.96 1006.89 1006.02 1005.77 1005.64 1005.14 1004.45 1003.97 1003.22 1002.47 1002.01 1001.52 1001.14 1000.86 1000.90 1000.10 999.91 999.84 998.79
1012.17 1011.53 1010.78 1010.02 1009.24 1008.67 1008.14 1007.42 1006.43 1005.48 1004.68 1004.32 1004.07 1003.57 1002.72 1001.70 1001.82 1001.22 1000.99 1000.42 999.99 999.76 999.50 999.04 998.05 997.41 996.93
1011.42 1010.57 1009.79 1008.93 1008.13 1007.41 1006.63 1005.83 1004.75 1003.87 1003.11 1002.83 1002.58 1002.35 1001.20 999.48 999.13 999.29 998.62 998.32 998.20 997.93 997.65 997.27 996.61 995.70 995.72
Wind_Speed
11 13 16 17 16 15 15 16 14 24 26 27 29 28 28 26 23 23 23 24 26 26 30 28 28 37 37
13 12 15 16 18 19 14 14 15 20 27 28 28 28 26 28 27 26 26 27 27 26 29 26 29 29 40
14 12 12 12 15 16 16 15 13 22 25 25 25 27 30 28 27 26 20 20 21 23 21 29 27 29 30
13 12 12 12 12 12 14 12 12 13 18 22 27 25 26 25 21 22 24 24 24 23 26 26 26 26 37
13 13 12 11 12 10 12 14 16 13 12 11 12 11 13 20 23 28 28 28 30 28 29 28 27 26 27
13 14 17 14 13 12 13 12 16 11 12 11 10 13 12 12 24 30 30 30 30 30 27 29 29 27 27
18 17 18 17 16 16 16 14 16 16 15 15 11 13 13 14 27 30 30 29 29 29 29 28 31 29 29
17 20 20 19 17 17 19 19 17 15 15 18 12 14 12 12 25 27 29 29 29 30 33 32 32 29 29
32 33 34 35 31 17 14 14 14 14 13 13 15 13 12 13 13 26 29 32 34 35 30 23 28 30 19
17 22 27 23 29 18 12 14 15 17 13 14 14 12 15 11 12 12 12 25 28 23 24 25 25 12 11
16 11 10 13 11 11 14 13 15 16 18 14 14 14 14 15 11 12 12 13 13 18 27 27 26 21 13
11 12 12 12 12 12 14 14 14 18 21 17 13 14 14 15 16 12 13 12 12 13 13 19 25 27 30
12 12 11 12 15 14 15 17 18 19 18 19 15 17 15 16 14 13 15 13 12 13 13 13 12 13 15
12 12 11 11 12 11 12 12 14 14 17 18 17 18 16 15 15 16 15 16 13 13 14 14 13 9 9
11 11 12 12 13 12 12 12 14 15 14 13 14 18 16 19 16 15 15 15 14 14 14 13 13 13 13
11 12 13 13 13 12 12 13 14 15 15 13 12 13 14 17 25 16 15 15 14 15 15 14 16 14 13
13 13 13 13 17 13 13 14 15 15 15 13 13 13 16 19 12 27 16 15 14 15 14 15 16 17 13
Wind_Direction
290 293 295 297 297 298 299 297 296 298 300 300 301 301 300 299 308 307 305 304 303 308 308 316 264 211 212
288 290 288 292 292 294 292 293 293 293 296 297 296 294 298 300 298 297 295 288 283 287 280 294 316 271 208
283 283 280 282 285 286 290 285 283 290 292 294 296 300 295 293 294 288 303 303 301 285 296 294 291 318 266
277 280 278 278 275 279 284 285 290 290 291 288 291 293 290 292 300 303 305 305 297 296 289 290 297 290 329
276 282 281 281 280 285 282 290 289 288 283 276 280 281 283 279 281 284 283 281 284 285 284 285 290 295 274
276 276 281 285 282 280 279 280 285 284 280 276 277 277 278 272 275 279 280 281 280 277 278 279 277 283 286
275 272 277 275 276 276 273 266 268 274 281 280 272 271 274 274 277 280 282 280 280 280 278 274 276 271 274
262 266 266 271 266 263 263 268 267 266 267 272 271 267 269 268 271 273 277 278 283 286 281 276 271 267 263
276 278 276 277 278 275 269 270 269 268 259 263 273 271 265 261 262 266 270 276 278 277 273 298 268 266 268
273 269 270 273 280 276 277 277 277 276 268 264 269 273 276 258 264 264 260 262 274 266 280 284 288 285 269
274 277 282 277 276 268 265 265 268 270 272 271 272 272 263 274 267 266 267 269 268 273 279 275 276 273 268
285 285 283 281 279 277 275 272 269 272 274 270 271 267 269 269 269 262 258 258 259 261 266 267 268 271 272
282 279 277 279 279 276 272 270 268 263 266 270 266 269 267 273 271 257 258 255 250 254 257 257 256 261 258
275 279 281 277 272 270 271 270 268 267 262 262 260 262 263 262 268 267 262 262 262 257 256 253 244 238 256
272 275 274 273 271 270 267 267 264 268 270 265 257 256 255 260 261 259 262 262 260 261 259 260 256 253 252
273 272 272 273 274 273 268 263 264 264 266 265 265 265 262 254 245 259 255 257 256 258 256 258 264 255 247
273 272 272 272 279 274 270 268 265 264 262 262 259 256 262 264 256 240 249 246 249 246 241 243 249 256 246